User: anonymous   Login
Location: Unspecified
(50.7693°N, 0.0000°E)
Time: 23:07:12
(UTC+00:00)
Language:

Courier 1B - Orbit

View from above orbital plane
View from above orbital plane
View from above satellite
View from above satellite

Ground track
Ground track

The orbit data is extracted from the following two-line orbital elements,

1    58U 60013A   19165.45524931  .00000095  00000-0  11108-4 0  9997
2    58  28.3265 166.6448 0164914 254.2991 103.9305 13.46317763889381
Epoch (UTC): 14 June 2019 10:55:33
Eccentricity: 0.0164914
inclination: 28.3265°
perigee height: 963 km
apogee height: 1209 km
right ascension of ascending node: 166.6448°
argument of perigee: 254.2991°
revolutions per day: 13.46317763
mean anomaly at epoch: 103.9305°
orbit number at epoch: 88938

The dashed part of the orbit path shows where the satellite is in the earth's shadow,  

DLR